iso_date,epoch_date,Year,Hour,Min,DOY,POS_DOY,Lat,Lon,BP,Ts,Ta,has_bp,has_ts,has_ta,BuoyID,Buoy_Type,Buoy_Owner,Logistics,Hemisphere
2020-07-06T18:01:00Z,1594058460,2020,18,1,188.7507,188.7507,61.58,-58.105,-999.00,5.45,-999.0,no,yes,no,300234068244830,SVPGHI,AOML,UNKNOWN,North
2020-07-06T19:00:02Z,1594062003,2020,19,0,188.7917,188.7917,61.575,-58.122,-999.00,5.46,-999.0,no,yes,no,300234068244830,SVPGHI,AOML,UNKNOWN,North
2020-07-06T20:03:59Z,1594065839,2020,20,4,188.8361,188.8361,61.573,-58.141,-999.00,5.47,-999.0,no,yes,no,300234068244830,SVPGHI,AOML,UNKNOWN,North
2020-07-06T21:00:00Z,1594069200,2020,21,0,188.875,188.875,61.572,-58.153,-999.00,5.48,-999.0,no,yes,no,300234068244830,SVPGHI,AOML,UNKNOWN,North
2020-07-06T22:02:03Z,1594072924,2020,22,2,188.9181,188.9181,61.574,-58.171,-999.00,5.48,-999.0,no,yes,no,300234068244830,SVPGHI,AOML,UNKNOWN,North
2020-07-06T22:59:57Z,1594076397,2020,23,0,188.9583,188.9583,61.575,-58.19,-999.00,5.48,-999.0,no,yes,no,300234068244830,SVPGHI,AOML,UNKNOWN,North
2020-07-07T00:00:00Z,1594080000,2020,0,0,189.0,189.0,61.573,-58.198,-999.00,5.48,-999.0,no,yes,no,300234068244830,SVPGHI,AOML,UNKNOWN,North
2020-07-07T01:02:55Z,1594083776,2020,1,3,189.0437,189.0437,61.571,-58.202,-999.00,5.47,-999.0,no,yes,no,300234068244830,SVPGHI,AOML,UNKNOWN,North
2020-07-07T01:59:57Z,1594087197,2020,2,0,189.0833,189.0833,61.563,-58.208,-999.00,5.47,-999.0,no,yes,no,300234068244830,SVPGHI,AOML,UNKNOWN,North
2020-07-07T03:00:00Z,1594090800,2020,3,0,189.125,189.125,61.555,-58.217,-999.00,5.46,-999.0,no,yes,no,300234068244830,SVPGHI,AOML,UNKNOWN,North
2020-07-07T04:00:02Z,1594094403,2020,4,0,189.1667,189.1667,61.549,-58.221,-999.00,5.47,-999.0,no,yes,no,300234068244830,SVPGHI,AOML,UNKNOWN,North
2020-07-07T04:59:57Z,1594097997,2020,5,0,189.2083,189.2083,61.541,-58.231,-999.00,5.46,-999.0,no,yes,no,300234068244830,SVPGHI,AOML,UNKNOWN,North
2020-07-07T06:00:00Z,1594101600,2020,6,0,189.25,189.25,61.537,-58.24,-999.00,5.47,-999.0,no,yes,no,300234068244830,SVPGHI,AOML,UNKNOWN,North
2020-07-07T07:00:02Z,1594105203,2020,7,0,189.2917,189.2917,61.534,-58.251,-999.00,5.46,-999.0,no,yes,no,300234068244830,SVPGHI,AOML,UNKNOWN,North
2020-07-07T08:00:57Z,1594108858,2020,8,1,189.334,189.334,61.534,-58.26,-999.00,5.47,-999.0,no,yes,no,300234068244830,SVPGHI,AOML,UNKNOWN,North
2020-07-07T09:00:00Z,1594112400,2020,9,0,189.375,189.375,61.534,-58.268,-999.00,5.47,-999.0,no,yes,no,300234068244830,SVPGHI,AOML,UNKNOWN,North
2020-07-07T10:00:02Z,1594116003,2020,10,0,189.4167,189.4167,61.534,-58.278,-999.00,5.48,-999.0,no,yes,no,300234068244830,SVPGHI,AOML,UNKNOWN,North
2020-07-07T10:59:57Z,1594119597,2020,11,0,189.4583,189.4583,61.534,-58.286,-999.00,5.48,-999.0,no,yes,no,300234068244830,SVPGHI,AOML,UNKNOWN,North
2020-07-07T12:00:00Z,1594123200,2020,12,0,189.5,189.5,61.531,-58.291,-999.00,5.5,-999.0,no,yes,no,300234068244830,SVPGHI,AOML,UNKNOWN,North
2020-07-07T13:00:02Z,1594126803,2020,13,0,189.5417,189.5417,61.525,-58.292,-999.00,5.54,-999.0,no,yes,no,300234068244830,SVPGHI,AOML,UNKNOWN,North
2020-07-07T13:59:57Z,1594130397,2020,14,0,189.5833,189.5833,61.518,-58.293,-999.00,5.56,-999.0,no,yes,no,300234068244830,SVPGHI,AOML,UNKNOWN,North
2020-07-07T15:00:00Z,1594134000,2020,15,0,189.625,189.625,61.51,-58.286,-999.00,5.61,-999.0,no,yes,no,300234068244830,SVPGHI,AOML,UNKNOWN,North
2020-07-07T16:00:02Z,1594137603,2020,16,0,189.6667,189.6667,61.503,-58.294,-999.00,5.65,-999.0,no,yes,no,300234068244830,SVPGHI,AOML,UNKNOWN,North
2020-07-07T16:59:57Z,1594141197,2020,17,0,189.7083,189.7083,61.495,-58.308,-999.00,5.69,-999.0,no,yes,no,300234068244830,SVPGHI,AOML,UNKNOWN,North
2020-07-07T18:00:00Z,1594144800,2020,18,0,189.75,189.75,61.492,-58.314,-999.00,5.73,-999.0,no,yes,no,300234068244830,SVPGHI,AOML,UNKNOWN,North
2020-07-07T19:00:02Z,1594148403,2020,19,0,189.7917,189.7917,61.49,-58.322,-999.00,5.73,-999.0,no,yes,no,300234068244830,SVPGHI,AOML,UNKNOWN,North
2020-07-07T19:59:57Z,1594151997,2020,20,0,189.8333,189.8333,61.492,-58.329,-999.00,5.7,-999.0,no,yes,no,300234068244830,SVPGHI,AOML,UNKNOWN,North
2020-07-07T21:00:00Z,1594155600,2020,21,0,189.875,189.875,61.492,-58.325,-999.00,5.69,-999.0,no,yes,no,300234068244830,SVPGHI,AOML,UNKNOWN,North
2020-07-07T22:02:03Z,1594159324,2020,22,2,189.9181,189.9181,61.496,-58.331,-999.00,5.67,-999.0,no,yes,no,300234068244830,SVPGHI,AOML,UNKNOWN,North
2020-07-07T22:59:57Z,1594162797,2020,23,0,189.9583,189.9583,61.496,-58.337,-999.00,5.67,-999.0,no,yes,no,300234068244830,SVPGHI,AOML,UNKNOWN,North
2020-07-08T00:00:00Z,1594166400,2020,0,0,190.0,190.0,61.494,-58.339,-999.00,5.68,-999.0,no,yes,no,300234068244830,SVPGHI,AOML,UNKNOWN,North
2020-07-08T01:00:02Z,1594170003,2020,1,0,190.0417,190.0417,61.491,-58.341,-999.00,5.67,-999.0,no,yes,no,300234068244830,SVPGHI,AOML,UNKNOWN,North
2020-07-08T02:00:57Z,1594173658,2020,2,1,190.084,190.084,61.484,-58.351,-999.00,5.67,-999.0,no,yes,no,300234068244830,SVPGHI,AOML,UNKNOWN,North
2020-07-08T03:02:00Z,1594177321,2020,3,2,190.1264,190.1264,61.478,-58.358,-999.00,5.72,-999.0,no,yes,no,300234068244830,SVPGHI,AOML,UNKNOWN,North
2020-07-08T04:03:56Z,1594181036,2020,4,4,190.1694,190.1694,61.474,-58.362,-999.00,5.73,-999.0,no,yes,no,300234068244830,SVPGHI,AOML,UNKNOWN,North
2020-07-08T04:59:57Z,1594184397,2020,5,0,190.2083,190.2083,61.47,-58.355,-999.00,5.77,-999.0,no,yes,no,300234068244830,SVPGHI,AOML,UNKNOWN,North
2020-07-08T06:00:00Z,1594188000,2020,6,0,190.25,190.25,61.467,-58.347,-999.00,5.76,-999.0,no,yes,no,300234068244830,SVPGHI,AOML,UNKNOWN,North
2020-07-08T07:00:02Z,1594191603,2020,7,0,190.2917,190.2917,61.463,-58.347,-999.00,5.75,-999.0,no,yes,no,300234068244830,SVPGHI,AOML,UNKNOWN,North
2020-07-08T07:59:57Z,1594195197,2020,8,0,190.3333,190.3333,61.458,-58.35,-999.00,5.73,-999.0,no,yes,no,300234068244830,SVPGHI,AOML,UNKNOWN,North
2020-07-08T09:00:00Z,1594198800,2020,9,0,190.375,190.375,61.456,-58.356,-999.00,5.71,-999.0,no,yes,no,300234068244830,SVPGHI,AOML,UNKNOWN,North
2020-07-08T10:02:03Z,1594202524,2020,10,2,190.4181,190.4181,61.455,-58.357,-999.00,5.69,-999.0,no,yes,no,300234068244830,SVPGHI,AOML,UNKNOWN,North
2020-07-08T10:59:57Z,1594205997,2020,11,0,190.4583,190.4583,61.455,-58.363,-999.00,5.72,-999.0,no,yes,no,300234068244830,SVPGHI,AOML,UNKNOWN,North
2020-07-08T12:00:00Z,1594209600,2020,12,0,190.5,190.5,61.451,-58.364,-999.00,5.73,-999.0,no,yes,no,300234068244830,SVPGHI,AOML,UNKNOWN,North
2020-07-08T13:00:02Z,1594213203,2020,13,0,190.5417,190.5417,61.444,-58.369,-999.00,5.75,-999.0,no,yes,no,300234068244830,SVPGHI,AOML,UNKNOWN,North
2020-07-08T14:01:58Z,1594216918,2020,14,2,190.5847,190.5847,61.438,-58.371,-999.00,5.77,-999.0,no,yes,no,300234068244830,SVPGHI,AOML,UNKNOWN,North
2020-07-08T15:00:00Z,1594220400,2020,15,0,190.625,190.625,61.433,-58.37,-999.00,5.8,-999.0,no,yes,no,300234068244830,SVPGHI,AOML,UNKNOWN,North
2020-07-08T16:00:02Z,1594224003,2020,16,0,190.6667,190.6667,61.426,-58.366,-999.00,5.81,-999.0,no,yes,no,300234068244830,SVPGHI,AOML,UNKNOWN,North
2020-07-08T16:59:57Z,1594227597,2020,17,0,190.7083,190.7083,61.421,-58.361,-999.00,5.84,-999.0,no,yes,no,300234068244830,SVPGHI,AOML,UNKNOWN,North
2020-07-08T18:02:00Z,1594231321,2020,18,2,190.7514,190.7514,61.416,-58.351,-999.00,5.84,-999.0,no,yes,no,300234068244830,SVPGHI,AOML,UNKNOWN,North
2020-07-08T19:00:02Z,1594234803,2020,19,0,190.7917,190.7917,61.411,-58.342,-999.00,5.86,-999.0,no,yes,no,300234068244830,SVPGHI,AOML,UNKNOWN,North
2020-07-08T19:59:57Z,1594238397,2020,20,0,190.8333,190.8333,61.406,-58.334,-999.00,5.88,-999.0,no,yes,no,300234068244830,SVPGHI,AOML,UNKNOWN,North
2020-07-08T21:00:00Z,1594242000,2020,21,0,190.875,190.875,61.402,-58.331,-999.00,5.87,-999.0,no,yes,no,300234068244830,SVPGHI,AOML,UNKNOWN,North
2020-07-08T22:01:03Z,1594245663,2020,22,1,190.9174,190.9174,61.397,-58.33,-999.00,5.88,-999.0,no,yes,no,300234068244830,SVPGHI,AOML,UNKNOWN,North
2020-07-08T22:59:57Z,1594249197,2020,23,0,190.9583,190.9583,61.393,-58.328,-999.00,5.87,-999.0,no,yes,no,300234068244830,SVPGHI,AOML,UNKNOWN,North
2020-07-09T00:00:00Z,1594252800,2020,0,0,191.0,191.0,61.387,-58.329,-999.00,5.85,-999.0,no,yes,no,300234068244830,SVPGHI,AOML,UNKNOWN,North
2020-07-09T01:01:03Z,1594256463,2020,1,1,191.0424,191.0424,61.381,-58.334,-999.00,5.83,-999.0,no,yes,no,300234068244830,SVPGHI,AOML,UNKNOWN,North
2020-07-09T01:59:57Z,1594259997,2020,2,0,191.0833,191.0833,61.373,-58.338,-999.00,5.84,-999.0,no,yes,no,300234068244830,SVPGHI,AOML,UNKNOWN,North
2020-07-09T03:00:00Z,1594263600,2020,3,0,191.125,191.125,61.368,-58.338,-999.00,5.83,-999.0,no,yes,no,300234068244830,SVPGHI,AOML,UNKNOWN,North
2020-07-09T04:00:02Z,1594267203,2020,4,0,191.1667,191.1667,61.363,-58.332,-999.00,5.85,-999.0,no,yes,no,300234068244830,SVPGHI,AOML,UNKNOWN,North
2020-07-09T04:59:57Z,1594270797,2020,5,0,191.2083,191.2083,61.356,-58.323,-999.00,5.85,-999.0,no,yes,no,300234068244830,SVPGHI,AOML,UNKNOWN,North
2020-07-09T06:01:00Z,1594274460,2020,6,1,191.2507,191.2507,61.348,-58.308,-999.00,5.85,-999.0,no,yes,no,300234068244830,SVPGHI,AOML,UNKNOWN,North
2020-07-09T07:01:03Z,1594278063,2020,7,1,191.2924,191.2924,61.34,-58.294,-999.00,5.85,-999.0,no,yes,no,300234068244830,SVPGHI,AOML,UNKNOWN,North
2020-07-09T07:59:57Z,1594281597,2020,8,0,191.3333,191.3333,61.33,-58.282,-999.00,5.85,-999.0,no,yes,no,300234068244830,SVPGHI,AOML,UNKNOWN,North
2020-07-09T09:00:00Z,1594285200,2020,9,0,191.375,191.375,61.321,-58.272,-999.00,5.84,-999.0,no,yes,no,300234068244830,SVPGHI,AOML,UNKNOWN,North
2020-07-09T10:02:03Z,1594288924,2020,10,2,191.4181,191.4181,61.313,-58.258,-999.00,5.86,-999.0,no,yes,no,300234068244830,SVPGHI,AOML,UNKNOWN,North
2020-07-09T11:03:59Z,1594292639,2020,11,4,191.4611,191.4611,61.304,-58.258,-999.00,5.85,-999.0,no,yes,no,300234068244830,SVPGHI,AOML,UNKNOWN,North
2020-07-09T13:00:02Z,1594299603,2020,13,0,191.5417,191.5417,61.287,-58.258,-999.00,5.89,-999.0,no,yes,no,300234068244830,SVPGHI,AOML,UNKNOWN,North
2020-07-09T14:00:57Z,1594303258,2020,14,1,191.584,191.584,61.28,-58.261,-999.00,5.92,-999.0,no,yes,no,300234068244830,SVPGHI,AOML,UNKNOWN,North
2020-07-09T15:01:00Z,1594306860,2020,15,1,191.6257,191.6257,61.275,-58.253,-999.00,6.0,-999.0,no,yes,no,300234068244830,SVPGHI,AOML,UNKNOWN,North
2020-07-09T16:00:02Z,1594310403,2020,16,0,191.6667,191.6667,61.268,-58.243,-999.00,5.94,-999.0,no,yes,no,300234068244830,SVPGHI,AOML,UNKNOWN,North
2020-07-09T16:59:57Z,1594313997,2020,17,0,191.7083,191.7083,61.261,-58.228,-999.00,5.9,-999.0,no,yes,no,300234068244830,SVPGHI,AOML,UNKNOWN,North
2020-07-09T18:00:00Z,1594317600,2020,18,0,191.75,191.75,61.252,-58.21,-999.00,5.95,-999.0,no,yes,no,300234068244830,SVPGHI,AOML,UNKNOWN,North
2020-07-09T19:00:02Z,1594321203,2020,19,0,191.7917,191.7917,61.247,-58.197,-999.00,5.95,-999.0,no,yes,no,300234068244830,SVPGHI,AOML,UNKNOWN,North
2020-07-09T20:00:57Z,1594324858,2020,20,1,191.834,191.834,61.239,-58.18,-999.00,5.95,-999.0,no,yes,no,300234068244830,SVPGHI,AOML,UNKNOWN,North
2020-07-09T21:00:00Z,1594328400,2020,21,0,191.875,191.875,61.233,-58.166,-999.00,5.95,-999.0,no,yes,no,300234068244830,SVPGHI,AOML,UNKNOWN,North
2020-07-09T22:00:02Z,1594332003,2020,22,0,191.9167,191.9167,61.226,-58.154,-999.00,5.95,-999.0,no,yes,no,300234068244830,SVPGHI,AOML,UNKNOWN,North
2020-07-09T22:59:57Z,1594335597,2020,23,0,191.9583,191.9583,61.22,-58.144,-999.00,5.93,-999.0,no,yes,no,300234068244830,SVPGHI,AOML,UNKNOWN,North
2020-07-10T00:00:00Z,1594339200,2020,0,0,192.0,192.0,61.219,-58.14,-999.00,5.92,-999.0,no,yes,no,300234068244830,SVPGHI,AOML,UNKNOWN,North
2020-07-10T01:00:02Z,1594342803,2020,1,0,192.0417,192.0417,61.215,-58.133,-999.00,5.91,-999.0,no,yes,no,300234068244830,SVPGHI,AOML,UNKNOWN,North
2020-07-10T01:59:57Z,1594346397,2020,2,0,192.0833,192.0833,61.212,-58.127,-999.00,5.9,-999.0,no,yes,no,300234068244830,SVPGHI,AOML,UNKNOWN,North
2020-07-10T03:00:00Z,1594350000,2020,3,0,192.125,192.125,61.209,-58.116,-999.00,5.88,-999.0,no,yes,no,300234068244830,SVPGHI,AOML,UNKNOWN,North
2020-07-10T04:00:02Z,1594353603,2020,4,0,192.1667,192.1667,61.204,-58.101,-999.00,5.87,-999.0,no,yes,no,300234068244830,SVPGHI,AOML,UNKNOWN,North
2020-07-10T04:59:57Z,1594357197,2020,5,0,192.2083,192.2083,61.199,-58.089,-999.00,5.87,-999.0,no,yes,no,300234068244830,SVPGHI,AOML,UNKNOWN,North
2020-07-10T06:01:00Z,1594360860,2020,6,1,192.2507,192.2507,61.197,-58.074,-999.00,5.88,-999.0,no,yes,no,300234068244830,SVPGHI,AOML,UNKNOWN,North
2020-07-10T07:00:02Z,1594364403,2020,7,0,192.2917,192.2917,61.196,-58.056,-999.00,5.89,-999.0,no,yes,no,300234068244830,SVPGHI,AOML,UNKNOWN,North
2020-07-10T07:59:57Z,1594367997,2020,8,0,192.3333,192.3333,61.195,-58.034,-999.00,5.9,-999.0,no,yes,no,300234068244830,SVPGHI,AOML,UNKNOWN,North
2020-07-10T09:00:00Z,1594371600,2020,9,0,192.375,192.375,61.193,-58.012,-999.00,5.89,-999.0,no,yes,no,300234068244830,SVPGHI,AOML,UNKNOWN,North
2020-07-10T10:01:03Z,1594375263,2020,10,1,192.4174,192.4174,61.19,-57.995,-999.00,5.91,-999.0,no,yes,no,300234068244830,SVPGHI,AOML,UNKNOWN,North
2020-07-10T10:59:57Z,1594378797,2020,11,0,192.4583,192.4583,61.189,-57.982,-999.00,5.95,-999.0,no,yes,no,300234068244830,SVPGHI,AOML,UNKNOWN,North
2020-07-10T12:00:00Z,1594382400,2020,12,0,192.5,192.5,61.19,-57.97,-999.00,6.13,-999.0,no,yes,no,300234068244830,SVPGHI,AOML,UNKNOWN,North
2020-07-10T13:00:02Z,1594386003,2020,13,0,192.5417,192.5417,61.19,-57.959,-999.00,6.41,-999.0,no,yes,no,300234068244830,SVPGHI,AOML,UNKNOWN,North
2020-07-10T13:59:57Z,1594389597,2020,14,0,192.5833,192.5833,61.19,-57.947,-999.00,6.68,-999.0,no,yes,no,300234068244830,SVPGHI,AOML,UNKNOWN,North
2020-07-10T15:00:00Z,1594393200,2020,15,0,192.625,192.625,61.194,-57.936,-999.00,6.79,-999.0,no,yes,no,300234068244830,SVPGHI,AOML,UNKNOWN,North
2020-07-10T16:00:02Z,1594396803,2020,16,0,192.6667,192.6667,61.193,-57.92,-999.00,6.72,-999.0,no,yes,no,300234068244830,SVPGHI,AOML,UNKNOWN,North
2020-07-10T16:59:57Z,1594400397,2020,17,0,192.7083,192.7083,61.193,-57.899,-999.00,6.85,-999.0,no,yes,no,300234068244830,SVPGHI,AOML,UNKNOWN,North
2020-07-10T18:00:00Z,1594404000,2020,18,0,192.75,192.75,61.193,-57.88,-999.00,6.93,-999.0,no,yes,no,300234068244830,SVPGHI,AOML,UNKNOWN,North
2020-07-10T19:00:02Z,1594407603,2020,19,0,192.7917,192.7917,61.199,-57.863,-999.00,7.0,-999.0,no,yes,no,300234068244830,SVPGHI,AOML,UNKNOWN,North
2020-07-10T19:59:57Z,1594411197,2020,20,0,192.8333,192.8333,61.195,-57.847,-999.00,7.0,-999.0,no,yes,no,300234068244830,SVPGHI,AOML,UNKNOWN,North
2020-07-10T21:00:00Z,1594414800,2020,21,0,192.875,192.875,61.199,-57.832,-999.00,6.85,-999.0,no,yes,no,300234068244830,SVPGHI,AOML,UNKNOWN,North
2020-07-10T22:00:02Z,1594418403,2020,22,0,192.9167,192.9167,61.206,-57.818,-999.00,6.73,-999.0,no,yes,no,300234068244830,SVPGHI,AOML,UNKNOWN,North
2020-07-10T22:59:57Z,1594421997,2020,23,0,192.9583,192.9583,61.215,-57.802,-999.00,6.68,-999.0,no,yes,no,300234068244830,SVPGHI,AOML,UNKNOWN,North
2020-07-11T00:00:00Z,1594425600,2020,0,0,193.0,193.0,61.224,-57.786,-999.00,6.58,-999.0,no,yes,no,300234068244830,SVPGHI,AOML,UNKNOWN,North
2020-07-11T01:00:02Z,1594429203,2020,1,0,193.0417,193.0417,61.231,-57.772,-999.00,6.56,-999.0,no,yes,no,300234068244830,SVPGHI,AOML,UNKNOWN,North
2020-07-11T01:59:57Z,1594432797,2020,2,0,193.0833,193.0833,61.238,-57.761,-999.00,6.37,-999.0,no,yes,no,300234068244830,SVPGHI,AOML,UNKNOWN,North
2020-07-11T03:03:01Z,1594436581,2020,3,3,193.1271,193.1271,61.243,-57.748,-999.00,6.32,-999.0,no,yes,no,300234068244830,SVPGHI,AOML,UNKNOWN,North
2020-07-11T04:00:02Z,1594440003,2020,4,0,193.1667,193.1667,61.248,-57.735,-999.00,6.23,-999.0,no,yes,no,300234068244830,SVPGHI,AOML,UNKNOWN,North
2020-07-11T05:00:57Z,1594443658,2020,5,1,193.209,193.209,61.254,-57.726,-999.00,6.2,-999.0,no,yes,no,300234068244830,SVPGHI,AOML,UNKNOWN,North
2020-07-11T06:00:00Z,1594447200,2020,6,0,193.25,193.25,61.261,-57.715,-999.00,6.28,-999.0,no,yes,no,300234068244830,SVPGHI,AOML,UNKNOWN,North
2020-07-11T07:00:02Z,1594450803,2020,7,0,193.2917,193.2917,61.27,-57.707,-999.00,6.24,-999.0,no,yes,no,300234068244830,SVPGHI,AOML,UNKNOWN,North
2020-07-11T07:59:57Z,1594454397,2020,8,0,193.3333,193.3333,61.282,-57.694,-999.00,6.2,-999.0,no,yes,no,300234068244830,SVPGHI,AOML,UNKNOWN,North
2020-07-11T09:00:00Z,1594458000,2020,9,0,193.375,193.375,61.29,-57.682,-999.00,6.27,-999.0,no,yes,no,300234068244830,SVPGHI,AOML,UNKNOWN,North
2020-07-11T10:00:02Z,1594461603,2020,10,0,193.4167,193.4167,61.3,-57.672,-999.00,6.33,-999.0,no,yes,no,300234068244830,SVPGHI,AOML,UNKNOWN,North
2020-07-11T10:59:57Z,1594465197,2020,11,0,193.4583,193.4583,61.311,-57.661,-999.00,6.34,-999.0,no,yes,no,300234068244830,SVPGHI,AOML,UNKNOWN,North
2020-07-11T12:00:00Z,1594468800,2020,12,0,193.5,193.5,61.321,-57.655,-999.00,6.41,-999.0,no,yes,no,300234068244830,SVPGHI,AOML,UNKNOWN,North
2020-07-11T13:00:02Z,1594472403,2020,13,0,193.5417,193.5417,61.33,-57.652,-999.00,6.42,-999.0,no,yes,no,300234068244830,SVPGHI,AOML,UNKNOWN,North
2020-07-11T14:00:57Z,1594476058,2020,14,1,193.584,193.584,61.344,-57.653,-999.00,6.41,-999.0,no,yes,no,300234068244830,SVPGHI,AOML,UNKNOWN,North
2020-07-11T15:00:00Z,1594479600,2020,15,0,193.625,193.625,61.356,-57.652,-999.00,6.43,-999.0,no,yes,no,300234068244830,SVPGHI,AOML,UNKNOWN,North
2020-07-11T16:00:02Z,1594483203,2020,16,0,193.6667,193.6667,61.367,-57.65,-999.00,6.55,-999.0,no,yes,no,300234068244830,SVPGHI,AOML,UNKNOWN,North
2020-07-11T16:59:57Z,1594486797,2020,17,0,193.7083,193.7083,61.377,-57.644,-999.00,6.58,-999.0,no,yes,no,300234068244830,SVPGHI,AOML,UNKNOWN,North
2020-07-11T18:00:00Z,1594490400,2020,18,0,193.75,193.75,61.385,-57.641,-999.00,6.64,-999.0,no,yes,no,300234068244830,SVPGHI,AOML,UNKNOWN,North
2020-07-11T19:00:02Z,1594494003,2020,19,0,193.7917,193.7917,61.393,-57.639,-999.00,6.64,-999.0,no,yes,no,300234068244830,SVPGHI,AOML,UNKNOWN,North
2020-07-11T19:59:57Z,1594497597,2020,20,0,193.8333,193.8333,61.399,-57.645,-999.00,6.73,-999.0,no,yes,no,300234068244830,SVPGHI,AOML,UNKNOWN,North
2020-07-11T22:00:02Z,1594504803,2020,22,0,193.9167,193.9167,61.42,-57.66,-999.00,6.74,-999.0,no,yes,no,300234068244830,SVPGHI,AOML,UNKNOWN,North
2020-07-11T22:59:57Z,1594508397,2020,23,0,193.9583,193.9583,61.433,-57.669,-999.00,6.73,-999.0,no,yes,no,300234068244830,SVPGHI,AOML,UNKNOWN,North
2020-07-12T00:00:00Z,1594512000,2020,0,0,194.0,194.0,61.446,-57.679,-999.00,6.7,-999.0,no,yes,no,300234068244830,SVPGHI,AOML,UNKNOWN,North
2020-07-12T01:00:02Z,1594515603,2020,1,0,194.0417,194.0417,61.46,-57.685,-999.00,6.65,-999.0,no,yes,no,300234068244830,SVPGHI,AOML,UNKNOWN,North
2020-07-12T01:59:57Z,1594519197,2020,2,0,194.0833,194.0833,61.469,-57.695,-999.00,6.6,-999.0,no,yes,no,300234068244830,SVPGHI,AOML,UNKNOWN,North
2020-07-12T03:00:00Z,1594522800,2020,3,0,194.125,194.125,61.478,-57.703,-999.00,6.58,-999.0,no,yes,no,300234068244830,SVPGHI,AOML,UNKNOWN,North
2020-07-12T04:00:02Z,1594526403,2020,4,0,194.1667,194.1667,61.484,-57.712,-999.00,6.56,-999.0,no,yes,no,300234068244830,SVPGHI,AOML,UNKNOWN,North
2020-07-12T04:59:57Z,1594529997,2020,5,0,194.2083,194.2083,61.489,-57.728,-999.00,6.54,-999.0,no,yes,no,300234068244830,SVPGHI,AOML,UNKNOWN,North
2020-07-12T06:00:00Z,1594533600,2020,6,0,194.25,194.25,61.494,-57.744,-999.00,6.54,-999.0,no,yes,no,300234068244830,SVPGHI,AOML,UNKNOWN,North
2020-07-12T07:02:55Z,1594537376,2020,7,3,194.2937,194.2937,61.503,-57.763,-999.00,6.54,-999.0,no,yes,no,300234068244830,SVPGHI,AOML,UNKNOWN,North
2020-07-12T07:59:57Z,1594540797,2020,8,0,194.3333,194.3333,61.51,-57.774,-999.00,6.52,-999.0,no,yes,no,300234068244830,SVPGHI,AOML,UNKNOWN,North
2020-07-12T09:00:00Z,1594544400,2020,9,0,194.375,194.375,61.515,-57.789,-999.00,6.51,-999.0,no,yes,no,300234068244830,SVPGHI,AOML,UNKNOWN,North
2020-07-12T10:00:02Z,1594548003,2020,10,0,194.4167,194.4167,61.521,-57.802,-999.00,6.52,-999.0,no,yes,no,300234068244830,SVPGHI,AOML,UNKNOWN,North
2020-07-12T10:59:57Z,1594551597,2020,11,0,194.4583,194.4583,61.528,-57.815,-999.00,6.53,-999.0,no,yes,no,300234068244830,SVPGHI,AOML,UNKNOWN,North
2020-07-12T12:00:00Z,1594555200,2020,12,0,194.5,194.5,61.536,-57.837,-999.00,6.56,-999.0,no,yes,no,300234068244830,SVPGHI,AOML,UNKNOWN,North
2020-07-12T13:00:02Z,1594558803,2020,13,0,194.5417,194.5417,61.543,-57.86,-999.00,6.6,-999.0,no,yes,no,300234068244830,SVPGHI,AOML,UNKNOWN,North
2020-07-12T13:59:57Z,1594562397,2020,14,0,194.5833,194.5833,61.546,-57.881,-999.00,6.61,-999.0,no,yes,no,300234068244830,SVPGHI,AOML,UNKNOWN,North
2020-07-12T15:00:00Z,1594566000,2020,15,0,194.625,194.625,61.548,-57.901,-999.00,6.64,-999.0,no,yes,no,300234068244830,SVPGHI,AOML,UNKNOWN,North
2020-07-12T16:00:02Z,1594569603,2020,16,0,194.6667,194.6667,61.554,-57.925,-999.00,6.66,-999.0,no,yes,no,300234068244830,SVPGHI,AOML,UNKNOWN,North
2020-07-12T16:59:57Z,1594573197,2020,17,0,194.7083,194.7083,61.556,-57.943,-999.00,6.66,-999.0,no,yes,no,300234068244830,SVPGHI,AOML,UNKNOWN,North
2020-07-12T18:00:00Z,1594576800,2020,18,0,194.75,194.75,61.557,-57.965,-999.00,6.69,-999.0,no,yes,no,300234068244830,SVPGHI,AOML,UNKNOWN,North
2020-07-12T19:03:56Z,1594580636,2020,19,4,194.7944,194.7944,61.561,-57.987,-999.00,6.68,-999.0,no,yes,no,300234068244830,SVPGHI,AOML,UNKNOWN,North
2020-07-12T20:00:57Z,1594584058,2020,20,1,194.834,194.834,61.561,-58.001,-999.00,6.7,-999.0,no,yes,no,300234068244830,SVPGHI,AOML,UNKNOWN,North
2020-07-12T21:02:00Z,1594587721,2020,21,2,194.8764,194.8764,61.562,-58.019,-999.00,6.7,-999.0,no,yes,no,300234068244830,SVPGHI,AOML,UNKNOWN,North
2020-07-12T22:00:02Z,1594591203,2020,22,0,194.9167,194.9167,61.561,-58.038,-999.00,6.7,-999.0,no,yes,no,300234068244830,SVPGHI,AOML,UNKNOWN,North
2020-07-12T22:59:57Z,1594594797,2020,23,0,194.9583,194.9583,61.56,-58.058,-999.00,6.69,-999.0,no,yes,no,300234068244830,SVPGHI,AOML,UNKNOWN,North
2020-07-13T00:00:00Z,1594598400,2020,0,0,195.0,195.0,61.561,-58.085,-999.00,6.67,-999.0,no,yes,no,300234068244830,SVPGHI,AOML,UNKNOWN,North
2020-07-13T01:01:03Z,1594602063,2020,1,1,195.0424,195.0424,61.561,-58.114,-999.00,6.66,-999.0,no,yes,no,300234068244830,SVPGHI,AOML,UNKNOWN,North
2020-07-13T01:59:57Z,1594605597,2020,2,0,195.0833,195.0833,61.562,-58.143,-999.00,6.65,-999.0,no,yes,no,300234068244830,SVPGHI,AOML,UNKNOWN,North
2020-07-13T03:00:00Z,1594609200,2020,3,0,195.125,195.125,61.562,-58.167,-999.00,6.64,-999.0,no,yes,no,300234068244830,SVPGHI,AOML,UNKNOWN,North
2020-07-13T04:00:02Z,1594612803,2020,4,0,195.1667,195.1667,61.56,-58.189,-999.00,6.62,-999.0,no,yes,no,300234068244830,SVPGHI,AOML,UNKNOWN,North
2020-07-13T04:59:57Z,1594616397,2020,5,0,195.2083,195.2083,61.561,-58.212,-999.00,6.61,-999.0,no,yes,no,300234068244830,SVPGHI,AOML,UNKNOWN,North
2020-07-13T06:02:00Z,1594620121,2020,6,2,195.2514,195.2514,61.556,-58.229,-999.00,6.6,-999.0,no,yes,no,300234068244830,SVPGHI,AOML,UNKNOWN,North
2020-07-13T07:00:02Z,1594623603,2020,7,0,195.2917,195.2917,61.549,-58.247,-999.00,6.59,-999.0,no,yes,no,300234068244830,SVPGHI,AOML,UNKNOWN,North
2020-07-13T08:00:57Z,1594627258,2020,8,1,195.334,195.334,61.543,-58.262,-999.00,6.58,-999.0,no,yes,no,300234068244830,SVPGHI,AOML,UNKNOWN,North
2020-07-13T09:04:01Z,1594631042,2020,9,4,195.3778,195.3778,61.534,-58.284,-999.00,6.57,-999.0,no,yes,no,300234068244830,SVPGHI,AOML,UNKNOWN,North
2020-07-13T10:03:56Z,1594634636,2020,10,4,195.4194,195.4194,61.527,-58.309,-999.00,6.57,-999.0,no,yes,no,300234068244830,SVPGHI,AOML,UNKNOWN,North
2020-07-13T10:59:57Z,1594637997,2020,11,0,195.4583,195.4583,61.521,-58.333,-999.00,6.58,-999.0,no,yes,no,300234068244830,SVPGHI,AOML,UNKNOWN,North
2020-07-13T12:00:00Z,1594641600,2020,12,0,195.5,195.5,61.514,-58.357,-999.00,6.59,-999.0,no,yes,no,300234068244830,SVPGHI,AOML,UNKNOWN,North
2020-07-13T13:00:02Z,1594645203,2020,13,0,195.5417,195.5417,61.51,-58.383,-999.00,6.63,-999.0,no,yes,no,300234068244830,SVPGHI,AOML,UNKNOWN,North
2020-07-13T13:59:57Z,1594648797,2020,14,0,195.5833,195.5833,61.506,-58.411,-999.00,6.64,-999.0,no,yes,no,300234068244830,SVPGHI,AOML,UNKNOWN,North
2020-07-13T15:00:00Z,1594652400,2020,15,0,195.625,195.625,61.504,-58.425,-999.00,6.68,-999.0,no,yes,no,300234068244830,SVPGHI,AOML,UNKNOWN,North